Regional Weather Roundup
Issued by NWS

Home | Current Version | Previous Version | Graphics & Text | Print | Product List | Glossary On
Versions: 1 2 3 4 5 6 7 8 9 10 11 12 13 14 15 16 17 18 19 20 21 22 23 24 25 26 27 28 29 30 31 32 33 34 35 36 37 38 39 40 41 42 43 44 45 46 47 48 49 50
000
ASUS43 KMPX 052310
RWRMN
WEATHER ROUNDUP FOR MINNESOTA
NATIONAL WEATHER SERVICE TWIN CITIES/CHANHASSEN MN
600 PM CDT THU MAY 05 2016


NOTE: "FAIR" INDICATES FEW OR NO CLOUDS BELOW 12,000 FEET WITH NO
SIGNIFICANT WEATHER AND/OR OBSTRUCTIONS TO VISIBILITY. N/A MEANS
CURRENT SKY AND/OR WEATHER CONDITIONS ARE NOT AVAILABLE.

MNZ060>063-068>070-060000-
   Twin Cities Metro

CITY           SKY/WX    TMP DP  RH WIND       PRES   REMARKS
TWIN CITIES    SUNNY     78  35  21 W13       29.90F
ST PAUL        SUNNY     76  38  25 SW10      29.91F
CRYSTAL        SUNNY     78  36  21 SW14      29.89F
BLAINE         SUNNY     79  37  22 W12       29.89F
EDEN PRAIRIE   SUNNY     79  36  21 SW12      29.90F
SOUTH ST PAUL  SUNNY     77  35  22 SW8       29.91F
LAKE ELMO      FAIR      73  39  29 SW8       29.92F
$$
MNZ001>005-007-008-013>017-022>024-027-028-060000-
   Northwest Minnesota

CITY           SKY/WX    TMP DP  RH WIND       PRES   REMARKS
BEMIDJI        SUNNY     87  38  17 W21G26    29.77F
HALLOCK        SUNNY     91  25   9 W17       29.67S
ROSEAU         SUNNY     91  27   9 W10G21    29.68F
WARROAD        SUNNY     90  45  20 NW6G29    29.68S
THIEF RVR FALL SUNNY     90  34  13 W20       29.74F
CROOKSTON      SUNNY     90  34  13 W14G22    29.74S
FOSSTON        SUNNY     90  32  12 W18       29.77F
DETROIT LAKES  SUNNY     86  36  16 SW10      29.83S
MOORHEAD       SUNNY     90  32  12 SW16G22   29.78F
PARK RAPIDS    SUNNY     85  40  20 W14G21    29.80F
MAHNOMEN       FAIR      88  35  15 W22G28    29.77F
$$
MNZ006-009>011-018-025>026-060000-
   North Central Minnesota

CITY           SKY/WX    TMP DP  RH WIND       PRES   REMARKS
BAUDETTE       CLOUDY    89  37  16 W13G18    29.68F
FLAG ISLAND    SUNNY     82  34  17 N8        29.66F
INTL FALLS     CLOUDY    86  45  23 W9        29.69F
WASKISH        SUNNY     81  46  30 SW9       29.73F
BIG FORK       SUNNY     86  39  19 W9G21     29.75F
LONGVILLE      SUNNY     84  41  21 SW9       29.81F
GRAND RAPIDS   SUNNY     82  41  23 W13       29.81F
CRANE LAKE     SUNNY     84  37  18 W5        29.73F
ORR            SUNNY     84  34  16 W12G18    29.72S
COOK           MOSUNNY   82  43  24 SW10G17   29.75F
WALKER         FAIR      84  43  23 SW9       29.78F
$$
MNZ012-019>021-037-060000-
   Northeast Minnesota

CITY           SKY/WX    TMP DP  RH WIND       PRES   REMARKS
DULUTH         SUNNY     78  38  23 W16       29.82F
ELY            SUNNY     81  36  19 W13       29.76F
HIBBING        SUNNY     81  40  23 W12G21    29.78F
EVELETH        SUNNY     81  36  19 W13G21    29.79F
DULUTH HARBOR  SUNNY     79  39  24 SW15G24   29.80S
TWO HARBORS      N/A     81  48  32 W15       29.78F
SILVER BAY     SUNNY     73  36  25 S9        29.78F
GRAND MARAIS     N/A     46  34  62 CALM      29.82F
G MARAIS ARPRT SUNNY     63  34  34 S10G18    29.83F
$$
MNZ029>031-032-039>041-046>048-054>057-064-060000-
   West Central Minnesota

CITY           SKY/WX    TMP DP  RH WIND       PRES   REMARKS
FERGUS FALLS   SUNNY     86  41  20 SW15      29.78F
WHEATON        SUNNY     88  45  22 SW13      29.85F
MORRIS         SUNNY     84  43  23 SW12      29.85F
ALEXANDRIA     SUNNY     83  41  22 SW13      29.87F
ELBOW LAKE     FAIR      84  41  21 SW18      29.85F
WADENA         SUNNY     84  43  23 W10G20    29.83F
GLENWOOD       SUNNY     84  43  23 SW20      29.88F
APPLETON       SUNNY     84  36  17 SW13      29.86F
BENSON         SUNNY     82  37  20 W12G20    29.87F
ORTONVILLE     SUNNY     84  39  20 SW10      29.86F
MADISON        SUNNY     82  39  21 W9        29.88F
WILLMAR        FAIR      84  43  23 SW15      29.90F
$$
MNZ033>034-036-042>043-049>051-058-059-060000-
   Central Minnesota

CITY           SKY/WX    TMP DP  RH WIND       PRES   REMARKS
ST CLOUD       SUNNY     80  39  23 SW9       29.88F
SAUK CENTRE      N/A     82  44  26 SW13G18   29.87F
PAYNESVILLE    SUNNY     83  36  18 W13       29.89F
AITKIN         SUNNY     84  28  13 SW13G18   29.82F
PINE RIVER     SUNNY     82  48  30 SW8G16    29.85F
BRAINERD       SUNNY     82  41  23 SW15G24   29.84F
STAPLES        SUNNY     82  39  21 S12       29.84F
LONG PRAIRIE   FAIR      81  45  28 S12G17    29.87F
LITTLE FALLS   SUNNY     81  36  19 SW8       29.86F
LITCHFIELD     SUNNY     82  37  20 W6        29.89F
BUFFALO        SUNNY     79  37  22 SW7       29.90F
MAPLE LAKE     SUNNY     81  42  25 SW10      29.90F
HUTCHINSON     SUNNY     82  42  23 SW9       29.91F
$$
MNZ037-044-045-052-053-060000-
   East Central Minnesota

CITY           SKY/WX    TMP DP  RH WIND       PRES   REMARKS
PRINCETON      SUNNY     81  37  21 SW13      29.88F
MORA           SUNNY     75  37  25 W10       29.88F
CAMBRIDGE        N/A     81  54  39 SW8       29.86F
RUSH CITY      SUNNY     76  38  25 SW12      29.88F
MOOSE LAKE     SUNNY     79  43  27 SW16      29.82F
HINCKLEY       CLOUDY    77  41  27 SW14      29.86F
CLOQUET        SUNNY     79  32  18 SW16      29.82F
MCGREGOR       SUNNY     81  41  24 SW10G17   29.84S
$$
MNZ071>073-080-081-089-090-097-098-060000-
   Southwest Minnesota

CITY           SKY/WX    TMP DP  RH WIND       PRES   REMARKS
MONTEVIDEO     SUNNY     86  43  22 W9G16     29.90F
GRANITE FALLS  SUNNY     86  42  21 SW14      29.91F
CANBY          SUNNY     83  45  26 SW7       29.90F
MARSHALL       SUNNY     82  43  25 W10       29.91F
REDWOOD FALLS  SUNNY     82  39  21 W10       29.90F
OLIVIA         SUNNY     79  41  25 SW13G20   29.89F
PIPESTONE      SUNNY     77  39  25 SW13      29.95F
WINDOM         SUNNY     79  37  22 SW9       29.95F
WORTHINGTON    SUNNY     77  39  25 SW12      29.97F
JACKSON        SUNNY     77  30  18 SW10G17   29.97F
TRACY          SUNNY     81  42  25 SW9G17    29.94F
SLAYTON        SUNNY     78  38  24 SW13      29.96F
$$
MNZ065>067-074>077-082>085-091>093-060000-
   South Central Minnesota

CITY           SKY/WX    TMP DP  RH WIND       PRES   REMARKS
MANKATO        SUNNY     79  36  21 SW13      29.93F
NEW ULM        SUNNY     79  37  22 W10       29.92F
ST JAMES       SUNNY     73  36  25 W7        29.95F
FAIRMONT       SUNNY     75  36  23 SW8       29.96F
GLENCOE        SUNNY     81  42  25 SW8       29.90F
FARIBAULT      SUNNY     75  37  25 SW8       29.94F
OWATONNA       SUNNY     75  30  19 SW9       29.94F
WASECA         SUNNY     77  36  22 W12       29.95F
ALBERT LEA     SUNNY     75  34  22 W8        29.96S
$$
MNZ078>079-086>088-094>096-060000-
   Southeast Minnesota

CITY           SKY/WX    TMP DP  RH WIND       PRES   REMARKS
ROCHESTER      SUNNY     72  38  29 W10       29.96F
RED WING       SUNNY     73  34  23 S3        29.91F
STANTON        SUNNY     76  35  22 W7        29.92F
DODGE CENTER   SUNNY     73  37  27 W7        29.95F
WINONA         MOSUNNY   72  36  26 W5        29.95F
AUSTIN         SUNNY     72  34  25 SW5       29.96F
PRESTON        SUNNY     69  37  30 W6        29.98F
$$
ABBREVIATIONS USED IN REMARKS
   TC - TEMPERATURES IN CELSIUS
  WCI - WIND CHILL INDEX
   HX - HEAT INDEX
  VSB - VISIBILITY
$$




USA.gov is the U.S. government's official web portal to all federal, state and local government web resources and services.